Yeovilton, United Kingdom

2:22 PM GMT on March 23, 2017 (GMT +0000)
Yeovil Radar Navy

Weather History for EGDY - March, 2013

Change the Weather History Date:

Friday, March 8, 2013

  Actual Average Record
Temperature  
Mean Temperature 50 °F -  
Max Temperature 57 °F 50 °F 58 °F (2014)
Min Temperature 44 °F 37 °F 23 °F (2011)
Degree Days  
Heating Degree Days 14    
Moisture  
Dew Point 48 °F    
Average Humidity 93    
Maximum Humidity 100    
Minimum Humidity 71    
Precipitation  
Precipitation 0.02 in - - ()
Sea Level Pressure  
Sea Level Pressure 29.44 in    
Wind  
Wind Speed 5 mph ()    
Max Wind Speed 9 mph    
Max Gust Speed -    
Visibility 4.5 miles    
Events Rain    
Averages and records for this station are not official NWS values.
T = Trace of Precipitation, MM = Missing Value Source: Averaged Metar Reports

Daily Weather History Graph

Daily Weather History Graph

Search for Another Location

Airport or City:

Trip Planner

Search our weather history database for the weather conditions in past years. The results will help you decide how hot, cold, wet, or windy it might be!

Date:

Astronomy

Mar. 08, 2013 Rise Set
Actual Time 6:39 AM GMT 6:03 PM GMT
Civil Twilight 6:06 AM GMT 6:36 PM GMT
Nautical Twilight 5:28 AM GMT 7:14 PM GMT
Astronomical Twilight 4:49 AM GMT 7:53 PM GMT
Moon 4:33 AM GMT (3/8) 2:24 PM GMT (3/8)
Length of Visible Light 12h 29m
Length of Day
11h 23m
Waning Crescent, 13% of the Moon is Illuminated
Mar 8
Waning Crescent
Mar 11
New
Mar 19
First Quarter
Mar 27
Full
Apr 3
Last Quarter

Hourly Weather History & Observations

Time (GMT) Temp. Windchill Dew Point Humidity Pressure Visibility Wind Dir Wind Speed Gust Speed Precip Events Conditions
12:50 AM 48.2 °F - 48.2 °F 100% 29.33 in 1.4 mi ESE 8.1 mph - N/A   Overcast
1:50 AM 48.2 °F - 48.2 °F 100% 29.33 in 1.9 mi East 5.8 mph - N/A   Overcast
2:50 AM 48 °F - 47 °F 96% 29.36 in 2 mi ESE 6.9 mph - -   Mist
2:50 AM 48.2 °F - 48.2 °F 100% 29.36 in 1.6 mi ESE 6.9 mph - N/A   Overcast
3:50 AM 48.2 °F - 48.2 °F 100% 29.36 in 1.6 mi East 3.5 mph - N/A Rain Light Rain
4:50 AM 48.2 °F - 48.2 °F 100% 29.36 in 1.6 mi ESE 2.3 mph - N/A Rain Light Rain
5:50 AM 47 °F - 47 °F 99% 29.37 in 2 mi East 3.5 mph - - Rain Light Rain
5:50 AM 48.2 °F - 46.4 °F 93% 29.36 in 2.5 mi East 3.5 mph - N/A   Overcast
6:50 AM 48.2 °F - 48.2 °F 100% 29.36 in 1.6 mi ESE 3.5 mph - N/A Rain Light Rain
7:15 AM 48.2 °F - 48.2 °F 100% 29.39 in 1.4 mi ESE 3.5 mph - N/A Rain Rain
7:50 AM 48.2 °F - 48.2 °F 100% 29.39 in 1.6 mi East 6.9 mph - N/A Rain Rain
8:50 AM 50 °F - 49 °F 95% 29.42 in 2 mi SE 3.5 mph - - Rain Light Rain
8:50 AM 50.0 °F - 50.0 °F 100% 29.42 in 2.5 mi SE 3.5 mph - N/A   Overcast
9:50 AM 50.0 °F - 50.0 °F 100% 29.42 in 2.8 mi SSE 5.8 mph - N/A Rain Light Rain
10:50 AM 51.8 °F - 50.0 °F 94% 29.44 in 4.3 mi SE 4.6 mph - N/A Rain Light Rain
11:50 AM 53 °F - 50 °F 85% 29.45 in 9 mi ESE 6.9 mph - - Rain Light Rain
11:50 AM 53.6 °F - 50.0 °F 88% 29.44 in 6.2 mi ESE 6.9 mph - N/A   Mostly Cloudy
12:50 PM 53.6 °F - 48.2 °F 82% 29.44 in 6.2 mi SE 5.8 mph - N/A   Mostly Cloudy
1:50 PM 55.4 °F - 50.0 °F 82% 29.44 in 6.2 mi SSE 4.6 mph - N/A   Mostly Cloudy
2:50 PM 55 °F - 48 °F 71% 29.47 in 12 mi SSW 8.1 mph - -   Mostly Cloudy
2:50 PM 55.4 °F - 48.2 °F 77% 29.44 in 6.2 mi SSW 8.1 mph - N/A   Mostly Cloudy
3:50 PM 53.6 °F - 50.0 °F 88% 29.47 in 6.2 mi South 6.9 mph - N/A   Mostly Cloudy
4:50 PM 53.6 °F - 50.0 °F 88% 29.47 in 6.2 mi SSE 5.8 mph - N/A   Mostly Cloudy
5:50 PM 52 °F - 48 °F 82% 29.50 in 14 mi SSW 9.2 mph - -   Partly Cloudy
5:50 PM 51.8 °F - 48.2 °F 88% 29.47 in 6.2 mi SSW 9.2 mph - N/A   Mostly Cloudy
6:50 PM 48.2 °F - 46.4 °F 93% 29.50 in 6.2 mi SE 4.6 mph - N/A   Unknown
7:50 PM 46.4 °F 45.2 °F 44.6 °F 93% 29.50 in 6.2 mi ESE 3.5 mph - N/A   Scattered Clouds
8:50 PM 45 °F - 45 °F 98% 29.53 in 5 mi SE 4.6 mph - -   Mist
8:50 PM 44.6 °F 42.2 °F 44.6 °F 100% 29.50 in 5.0 mi SE 4.6 mph - N/A   Scattered Clouds
9:50 PM 46.4 °F 44.3 °F 44.6 °F 93% 29.53 in 4.3 mi SE 4.6 mph - N/A   Mostly Cloudy
10:50 PM 46.4 °F 44.3 °F 46.4 °F 100% 29.53 in 3.7 mi ESE 4.6 mph - N/A   Mostly Cloudy
11:50 PM 47 °F - 47 °F 99% 29.55 in 3 mi East 3.5 mph - - Rain Light Rain Showers
11:50 PM 48.2 °F - 46.4 °F 93% 29.53 in - East 3.5 mph - N/A Rain Light Rain Showers